Regional Weather Roundup
Issued by NWS Newport/Morehead, NC

Home | Current Version | Previous Version | Text Only | Print | Product List | Glossary On
Versions: 1 2 3 4 5 6 7 8 9 10 11 12 13 14 15 16 17 18 19 20 21 22 23 24 25 26 27 28 29 30 31 32 33 34 35 36 37 38 39 40 41 42 43 44 45 46 47 48 49 50
000
ASUS42 KMHX 180013
RWRMHX
WEATHER ROUNDUP FOR EASTERN NORTH CAROLINA
NATIONAL WEATHER SERVICE NEWPORT/MOREHEAD CITY NC
700 PM EST WED JAN 17 2018

NOTE: "FAIR" INDICATES FEW OR NO CLOUDS BELOW 12,000 FEET
WITH NO SIGNIFICANT WEATHER AND/OR OBSTRUCTIONS TO VISIBILITY

NCZ015>017-031-032-045>047-102-103-180100-
NORTH COAST

CITY           SKY/WX    TMP DP  RH WIND       PRES   REMARKS
EDENTON        MIX PCPN  31  29  92 N8        30.20F
ELIZABETH CITY LGT SNOW  29  29 100 N17       30.20F FOG     WCI  17
KITTY HAWK     CLOUDY    32  32 100 N14G22    30.15F
MANTEO         CLOUDY    33  31  91 N18G24    30.17F

$$

NCZ045>047-081-094-103-104-180100-
CENTRAL COAST

CITY           SKY/WX    TMP DP  RH WIND       PRES   REMARKS
FRISCO         CLOUDY    37  36  96 N12G26    30.11F

$$

NCZ095-097-098-100-101-180100-
SOUTHERN COAST

CITY           SKY/WX    TMP DP  RH WIND       PRES   REMARKS
BEAUFORT       MOCLDY    37  33  85 NE14G22   30.09F
CEDAR ISLAND   NOT AVBL
JACKSONVILLE   CLOUDY    41  33  73 N10       30.11R
PINEY ISLAND   NOT AVBL
WILMINGTON     CLOUDY    42  33  70 NW9       30.10S


$$

NCZ011>013-027>030-043-044-078>080-089-090>093-098-180100-
COASTAL PLAIN

CITY           SKY/WX    TMP DP  RH WIND       PRES   REMARKS
AHOSKIE        LGT SNOW  26  24  93 N8        30.24S
CLINTON        CLOUDY    33  33 100 N9G16     30.17R
ELIZABETHTOWN  NOT AVBL
GOLDSBORO      FLURRIES  31  28  88 N13G24    30.16R
GREENVILLE     FLURRIES  32  30  93 N14G25    30.20R
HAVELOCK       NOT AVBL
KENANSVILLE    LGT RAIN  36  34  93 N14       30.15R FOG
KINSTON        CLOUDY    34  30  86 N16G24    30.17R
NEW BERN       CLOUDY    36  29  75 N20       30.14R
RICHLANDS      CLOUDY    40  32  73 N8        30.12S
ROCKY MOUNT    LGT SNOW  27  25  92 N16       30.23R FOG     WCI  15
WASHINGTON     FLURRIES  34  30  85 NE10G20   30.18R
WHITEVILLE     LGT RAIN  37  36  95 NW5       30.13S

$$

AMZ130-135-150-152-154-156-158-170-250-252-270-ANZ085-086-088-633-658-670-180100-
MARINE OBSERVATIONS

STATION/POSITION TIME  TEMP    WIND        PRES    WAVE   SWELL
                       AIR SEA DIR/SP/G            HT/PER HT/PER
                 (UTC) (F)     (DEG/KT/KT) (MB)    (FT/S) (FT/S)
CHESAPEAKE LIGHT NOT AVBL
64 E VA BEACH    2350   42 55  350/ 21/ 27 1020.9    7/10   5/10
DUCK             2348      38              1021.1
2 E DUCK         0000      40                N/A     6/12   2/12
OREGON INLET     2348      40              1020.6
13E OREGON INLT  2348      45                N/A     8/ 6   5/11
HATTERAS CG      2348      47              1019.2
DIAMOND BUOY     0000   45 72  360/ 27/ 35 1018.2
CAPE LOOKOUT     0000           20/ 20/ 25 1018.7
BEAUFORT LAB     2348      46              1018.9
30 SE NEW RVR IN 2308   46 58   50/ 19/ 25 1018.4
30 SE NEW RVR IN 0000      58                N/A     7/ 6   3/11
27 SE WRIGHTSVLE 2308   49 61   70/ 23/ 33 1017.6
5 SE WRIGHTSVLE  2308   46 47   50/ 16/ 19 1017.7
225 S CAPE HAT   2350   63 70  350/ 16/ 17 1016.6   10/11   7/11
41 SE CHARLESTON 0000   48     290/ 19/ 25 1020.6

$$




USA.gov is the U.S. government's official web portal to all federal, state and local government web resources and services.